TimeCST,TemperatureF,Dew PointF,Humidity,Sea Level PressureIn,VisibilityMPH,Wind Direction,Wind SpeedMPH,Gust SpeedMPH,PrecipitationIn,Events,Conditions,WindDirDegrees,DateUTC
12:15 AM,17.6,10.4,73,29.97,10.0,West,13.8,19.6,N/A,,Clear,270,2013-01-04 06:15:00
12:35 AM,17.6,10.4,73,29.97,10.0,West,15.0,-,N/A,,Clear,260,2013-01-04 06:35:00
12:55 AM,17.6,10.4,73,29.98,10.0,West,9.2,-,N/A,,Clear,270,2013-01-04 06:55:00
1:15 AM,15.8,10.4,79,29.98,10.0,WSW,4.6,-,N/A,,Clear,250,2013-01-04 07:15:00
1:35 AM,15.8,10.4,79,29.98,10.0,WSW,5.8,-,N/A,,Clear,240,2013-01-04 07:35:00
1:55 AM,17.6,10.4,73,29.98,10.0,WSW,8.1,-,N/A,,Clear,240,2013-01-04 07:55:00
2:15 AM,17.6,10.4,73,29.98,10.0,West,6.9,-,N/A,,Clear,260,2013-01-04 08:15:00
2:35 AM,17.6,10.4,73,29.99,10.0,West,8.1,-,N/A,,Clear,260,2013-01-04 08:35:00
3:15 AM,19.4,12.2,74,29.98,10.0,West,15.0,19.6,N/A,,Clear,270,2013-01-04 09:15:00
5:35 AM,12.2,6.8,79,30.01,10.0,WSW,6.9,-,N/A,,Clear,250,2013-01-04 11:35:00
6:15 AM,14.0,8.6,79,30.01,10.0,West,6.9,-,N/A,,Clear,260,2013-01-04 12:15:00
6:35 AM,12.2,6.8,79,30.02,10.0,Calm,Calm,-,N/A,,Clear,0,2013-01-04 12:35:00
7:15 AM,8.6,5.0,85,30.03,10.0,WSW,8.1,-,N/A,,Clear,250,2013-01-04 13:15:00
7:35 AM,8.6,5.0,85,30.03,10.0,West,6.9,-,N/A,,Clear,270,2013-01-04 13:35:00
7:55 AM,6.8,3.2,85,30.04,10.0,WSW,9.2,-,N/A,,Clear,240,2013-01-04 13:55:00
8:15 AM,8.6,6.8,92,30.04,10.0,West,9.2,-,N/A,,Clear,270,2013-01-04 14:15:00
8:35 AM,6.8,3.2,85,30.04,10.0,West,10.4,-,N/A,,Clear,260,2013-01-04 14:35:00
8:55 AM,10.4,6.8,85,30.04,10.0,West,10.4,-,N/A,,Clear,270,2013-01-04 14:55:00
9:15 AM,14.0,8.6,79,30.05,10.0,West,8.1,-,N/A,,Clear,270,2013-01-04 15:15:00
9:35 AM,14.0,8.6,79,30.06,10.0,West,10.4,-,N/A,,Clear,260,2013-01-04 15:35:00
9:55 AM,15.8,8.6,73,30.06,10.0,WNW,9.2,-,N/A,,Clear,290,2013-01-04 15:55:00
10:15 AM,17.6,10.4,73,30.06,10.0,WNW,10.4,-,N/A,,Clear,290,2013-01-04 16:15:00
10:35 AM,17.6,10.4,73,30.06,10.0,WNW,9.2,-,N/A,,Clear,300,2013-01-04 16:35:00
10:55 AM,17.6,10.4,73,30.06,10.0,WNW,8.1,-,N/A,,Clear,300,2013-01-04 16:55:00
11:15 AM,19.4,12.2,74,30.06,10.0,NW,6.9,-,N/A,,Clear,310,2013-01-04 17:15:00
11:35 AM,19.4,14.0,80,30.06,10.0,NW,5.8,-,N/A,,Clear,310,2013-01-04 17:35:00
11:55 AM,23.0,14.0,68,30.05,10.0,Calm,Calm,-,N/A,,Clear,0,2013-01-04 17:55:00
12:15 PM,21.2,14.0,74,30.05,10.0,West,4.6,-,N/A,,Clear,270,2013-01-04 18:15:00
12:35 PM,26.6,14.0,59,30.05,10.0,Calm,Calm,-,N/A,,Clear,0,2013-01-04 18:35:00
12:55 PM,24.8,14.0,64,30.04,10.0,Calm,Calm,-,N/A,,Clear,0,2013-01-04 18:55:00
1:15 PM,26.6,14.0,59,30.03,10.0,WSW,3.5,-,N/A,,Clear,240,2013-01-04 19:15:00
1:35 PM,24.8,14.0,64,30.01,10.0,SW,5.8,-,N/A,,Clear,230,2013-01-04 19:35:00
1:55 PM,23.0,14.0,68,30.01,10.0,SW,5.8,-,N/A,,Clear,220,2013-01-04 19:55:00
2:15 PM,23.0,15.8,74,30.01,10.0,SW,5.8,-,N/A,,Clear,230,2013-01-04 20:15:00
2:35 PM,23.0,15.8,74,30.00,10.0,SW,4.6,-,N/A,,Clear,220,2013-01-04 20:35:00
2:55 PM,26.6,15.8,64,30.01,10.0,Calm,Calm,-,N/A,,Clear,0,2013-01-04 20:55:00
3:15 PM,24.8,15.8,69,30.00,10.0,South,3.5,-,N/A,,Clear,180,2013-01-04 21:15:00
3:35 PM,24.8,14.0,64,30.00,10.0,SSW,3.5,-,N/A,,Clear,200,2013-01-04 21:35:00
3:55 PM,23.0,14.0,68,30.02,10.0,Calm,Calm,-,N/A,,Clear,0,2013-01-04 21:55:00
4:15 PM,17.6,12.2,79,30.03,10.0,NNE,6.9,-,N/A,,Clear,30,2013-01-04 22:15:00
4:35 PM,15.8,10.4,79,30.02,10.0,East,3.5,-,N/A,,Clear,80,2013-01-04 22:35:00
4:55 PM,17.6,12.2,79,30.03,10.0,Calm,Calm,-,N/A,,Clear,0,2013-01-04 22:55:00
5:35 PM,14.0,10.4,86,30.02,10.0,Calm,Calm,-,N/A,,Clear,0,2013-01-04 23:35:00
5:55 PM,14.0,10.4,86,30.02,10.0,Calm,Calm,-,N/A,,Clear,0,2013-01-04 23:55:00
6:15 PM,14.0,10.4,86,30.01,10.0,SE,4.6,-,N/A,,Clear,130,2013-01-05 00:15:00
6:35 PM,6.8,6.8,100,29.99,10.0,SE,8.1,-,N/A,,Clear,140,2013-01-05 00:35:00
6:55 PM,10.4,8.6,92,29.99,10.0,SE,5.8,-,N/A,,Clear,130,2013-01-05 00:55:00
7:15 PM,8.6,6.8,92,29.97,10.0,SSE,9.2,-,N/A,,Clear,150,2013-01-05 01:15:00
7:35 PM,12.2,10.4,92,29.98,10.0,SSE,6.9,-,N/A,,Clear,160,2013-01-05 01:35:00
7:55 PM,12.2,10.4,92,29.98,10.0,South,5.8,-,N/A,,Clear,170,2013-01-05 01:55:00
8:15 PM,8.6,6.8,92,29.97,10.0,SSE,3.5,-,N/A,,Clear,150,2013-01-05 02:15:00
8:35 PM,8.6,6.8,92,29.96,10.0,ESE,9.2,-,N/A,,Clear,120,2013-01-05 02:35:00
9:35 PM,6.8,5.0,92,29.95,10.0,ESE,5.8,-,N/A,,Clear,110,2013-01-05 03:35:00
9:55 PM,5.0,3.2,92,29.94,10.0,ESE,9.2,-,N/A,,Clear,120,2013-01-05 03:55:00
10:15 PM,5.0,3.2,92,29.94,10.0,SE,6.9,-,N/A,,Clear,130,2013-01-05 04:15:00
10:35 PM,3.2,1.4,92,29.93,10.0,ESE,4.6,-,N/A,,Clear,120,2013-01-05 04:35:00
10:55 PM,3.2,1.4,92,29.93,10.0,SE,4.6,-,N/A,,Clear,140,2013-01-05 04:55:00
11:15 PM,5.0,1.4,85,29.93,10.0,SE,6.9,-,N/A,,Clear,140,2013-01-05 05:15:00
11:35 PM,3.2,-0.4,85,29.92,10.0,SSE,5.8,-,N/A,,Clear,150,2013-01-05 05:35:00
11:55 PM,5.0,3.2,92,29.92,10.0,SSE,5.8,-,N/A,,Clear,160,2013-01-05 05:55:00